COSMOS 1375 DEB, 17796

Orbit data source: Space-Track

COSMOS 1375 DEB, 17796 is space debris in LEO originally from a launch on Sun, 06 Jun 1982 UTC launched from the Plesetsk Missile And Space Complex (PKMTR). Debris objects in space refer to the collection of defunct objects orbiting the Earth. Examples of debris include non-operational satellites, rocket bodies, and fragments generated from explosions, collisions, or faulty payload assembly.

Loading next visibility...
Identifier
17796, 1982-055AN
Orbit
LEO
Country
Flag of CISCIS
Related business
Manufacturer
Unknown
Mission
Spacecraft
Bus & Motor
Unknown
Mass
Unknown
Launch date (UTC)
1982-06-06 (44 years ago)
Launch vehicle
Unknown
Launch site
Plesetsk Missile And Space Complex (PKMTR)
Object type
Payload
Rocket body
Debris
Shape & HBR
Unknown shape, 0.1 m
Radar Cross Section
Medium (>0.1 m² and <1 m²)

Expand to show TLE details & history
Last TLE update: 2 days ago

TLE from 2 days ago
0 COSMOS 1375 DEB
1 17796U 82055AN  26171.44791625  .00000553  00000-0  36172-3 0  9990
2 17796  65.8197  44.1851 0049783 280.8536 141.3229 14.09569487731943
Epoch: 2026-06-20T10:44Z
TLE epoch observation values (Epoch: 2026-06-20T10:44:59.963Z)
Latitude
54.15804°
Longitude
12.46792°
Altitude
897.047 km
Speed
7.395 km/s
True Right ascension
05h 29m 31s
True Declination
53° 59' 52"
Sunlit
Object was in daylight at epoch
Visualization orbit readout
Latitude
Unknown
Longitude
Unknown
Altitude
Unknown
Speed
Unknown
Apparent Right ascension
Unknown
Apparent Declination
Unknown
Sunlit
N/A
Visualization observer readout
Local Sidereal Time
05:18:19
Azimuth
Unknown
Elevation
Unknown
Doppler factor
Unknown
Orbital elements
Apogee altitude
895.369 km
Perigee altitude
823.309 km
Semi-major axis
7,237.476 km
Eccentricity
0.00498
Inclination
65.8197°
RAAN
44.1851°
Arg. of periapsis
280.8536°
True anomaly
141.67768°
Mean anomaly
141.3229°
Eccentric anomaly
141.50046°
Mean motion
3.52503 °/min
Orbital period
102.13 mins
BSTAR
0.00036172
Loading maneuver chart data...
Computing Atmospheric mass density...
Loading historical data...
Loading historical data...
Loading historical data...
Loading historical data...
Loading historical data...
Loading historical data...
Loading historical data...

Documentation

Showing up to 5 results
|